TimePDT,TemperatureF,Dew PointF,Humidity,Sea Level PressureIn,VisibilityMPH,Wind Direction,Wind SpeedMPH,Gust SpeedMPH,PrecipitationIn,Events,Conditions,WindDirDegrees,DateUTC
12:03 AM,60.8,59.0,94,29.91,2.0,Calm,Calm,-,N/A,,Partly Cloudy,0,2013-10-01 07:03:00
12:07 AM,60.8,60.8,100,29.91,1.0,Calm,Calm,-,N/A,,Mist,0,2013-10-01 07:07:00
12:14 AM,60.8,60.8,100,29.90,0.2,Calm,Calm,-,N/A,Fog,Fog,0,2013-10-01 07:14:00
12:53 AM,62.1,61.0,96,29.89,0.2,Calm,Calm,-,N/A,Fog,Fog,0,2013-10-01 07:53:00
1:53 AM,61.0,61.0,100,29.90,0.2,Calm,Calm,-,N/A,Fog,Fog,0,2013-10-01 08:53:00
2:53 AM,60.1,60.1,100,29.89,0.2,Calm,Calm,-,N/A,Fog,Fog,0,2013-10-01 09:53:00
3:53 AM,59.0,59.0,100,29.88,0.2,Calm,Calm,-,N/A,Fog,Fog,0,2013-10-01 10:53:00
4:53 AM,57.0,57.0,100,29.89,0.2,Calm,Calm,-,N/A,Fog,Fog,0,2013-10-01 11:53:00
5:53 AM,57.0,57.0,100,29.91,0.2,Calm,Calm,-,N/A,Fog,Fog,0,2013-10-01 12:53:00
6:53 AM,55.9,55.9,100,29.91,0.2,Calm,Calm,-,N/A,Fog,Fog,0,2013-10-01 13:53:00
7:53 AM,57.9,57.9,100,29.93,0.2,Calm,Calm,-,N/A,Fog,Fog,0,2013-10-01 14:53:00
8:08 AM,57.2,57.2,100,29.94,2.0,Calm,Calm,-,N/A,,Mostly Cloudy,0,2013-10-01 15:08:00
8:12 AM,57.2,57.2,100,29.94,2.5,Calm,Calm,-,N/A,,Scattered Clouds,0,2013-10-01 15:12:00
8:19 AM,57.2,57.2,100,29.94,3.0,Calm,Calm,-,N/A,,Partly Cloudy,0,2013-10-01 15:19:00
8:53 AM,63.0,53.1,70,29.94,10.0,Calm,Calm,-,N/A,,Clear,0,2013-10-01 15:53:00
9:53 AM,71.1,51.1,49,29.94,8.0,Calm,Calm,-,N/A,,Clear,0,2013-10-01 16:53:00
10:53 AM,75.9,48.0,37,29.93,8.0,NW,3.5,-,N/A,,Clear,310,2013-10-01 17:53:00
11:53 AM,75.0,57.9,55,29.92,10.0,WNW,5.8,-,N/A,,Clear,300,2013-10-01 18:53:00
12:53 PM,75.9,60.1,58,29.91,10.0,WNW,9.2,-,N/A,,Clear,300,2013-10-01 19:53:00
1:53 PM,73.9,59.0,59,29.90,10.0,WSW,11.5,-,N/A,,Clear,250,2013-10-01 20:53:00
2:53 PM,73.0,57.9,59,29.89,10.0,West,8.1,-,N/A,,Clear,260,2013-10-01 21:53:00
3:53 PM,73.0,57.9,59,29.88,10.0,West,9.2,-,N/A,,Clear,260,2013-10-01 22:53:00
4:53 PM,69.1,57.9,68,29.89,10.0,West,9.2,-,N/A,,Clear,270,2013-10-01 23:53:00
5:53 PM,64.9,57.0,75,29.91,10.0,SW,9.2,-,N/A,,Clear,220,2013-10-02 00:53:00
6:53 PM,62.1,55.9,80,29.91,10.0,WNW,3.5,-,N/A,,Clear,300,2013-10-02 01:53:00
7:53 PM,61.0,57.0,87,29.92,10.0,Calm,Calm,-,N/A,,Clear,0,2013-10-02 02:53:00
8:53 PM,61.0,57.0,87,29.93,10.0,Calm,Calm,-,N/A,,Clear,0,2013-10-02 03:53:00
9:53 PM,60.1,55.9,86,29.94,9.0,Calm,Calm,-,N/A,,Clear,0,2013-10-02 04:53:00
10:50 PM,60.8,57.2,88,29.95,9.0,Calm,Calm,-,N/A,,Mostly Cloudy,0,2013-10-02 05:50:00
10:53 PM,60.1,57.0,90,29.94,9.0,Calm,Calm,-,N/A,,Mostly Cloudy,0,2013-10-02 05:53:00
11:53 PM,61.0,57.9,90,29.94,8.0,Calm,Calm,-,N/A,,Overcast,0,2013-10-02 06:53:00